Location: Chiroubles
(46.1812°N, 4.6660°E)
Time: 08:53:05
(UTC+00:00)

DMSP 5D-2 F13 DEB - Visible Passes

Search period start: 28 October 2021 00:00
Search period end: 07 November 2021 00:00
Orbit: 590 x 762 km, 98.7° (Epoch: 27 October)

Date Brightness Start Highest point End Pass type
(mag) Time Alt. Az. Time Alt. Az. Time Alt. Az.
28 Oct ? 17:20:49 10° NW 17:21:40 10° WNW 17:22:32 10° WNW visible
02 Nov ? 16:57:52 10° NNW 17:00:44 17° WNW 17:03:40 10° WSW visible
05 Nov ? 17:04:34 10° NNW 17:07:15 16° WNW 17:09:59 10° W visible
